GFSGL_con_lsi_159.txt.gz
Lid_Strength_Index
2 2 2 1 1 1 1 2 2 1 1 1 1 1 2 2 2 2 2 2 2 1 1 2 2 2 3 3 3 2 2 2 4 10 9 10 10 10 10 9 9 10 10
4 2 3 2 1 1 1 2 2 1 1 1 1 1 2 2 2 1 2 2 3 2 2 2 3 4 3 3 3 3 3 4 5 7 11 12 11 11 10 10 10 9 10
7 6 4 3 2 2 1 2 1 1 1 1 2 2 2 2 2 2 1 2 2 2 3 3 3 4 4 4 4 4 5 7 7 9 12 12 12 11 11 11 11 11 10
8 7 6 5 3 2 2 2 2 2 2 2 2 2 2 3 3 3 2 3 3 3 4 4 4 4 4 5 6 7 8 9 9 11 13 13 12 12 11 12 12 13 12
9 8 6 6 5 4 4 3 3 3 3 3 3 3 4 4 5 5 4 3 4 5 6 6 7 8 9 7 6 8 8 11 13 13 14 13 13 12 12 12 12 13 15
9 8 7 6 6 6 6 5 5 5 5 5 6 6 6 7 9 9 6 5 7 7 10 12 12 13 11 10 9 9 8 10 13 13 14 12 12 12 12 12 14 14 16
8 8 8 7 7 7 7 7 8 6 7 6 5 6 7 8 11 10 10 6 8 9 11 11 12 12 11 11 11 11 12 9 10 10 13 12 12 12 13 13 13 13 15
9 9 9 9 8 9 9 9 9 9 8 8 9 8 8 10 11 11 12 8 9 10 10 11 12 12 12 12 14 14 14 14 13 13 14 13 12 13 12 12 14 14 15
10 10 10 9 9 10 10 10 11 11 12 12 12 13 12 13 12 11 11 12 12 13 12 11 11 12 12 12 13 15 15 15 12 12 12 11 11 11 13 15 19 20 21
10 10 10 10 10 9 9 11 13 13 13 14 14 14 14 14 12 11 10 12 14 14 13 14 13 12 13 12 14 15 16 16 16 15 14 13 13 13 13 15 17 22 23
11 11 11 11 10 9 10 12 14 14 14 14 15 15 14 13 12 12 11 11 12 13 13 14 14 12 12 13 13 14 15 16 15 17 16 16 16 16 16 16 16 18 22
11 11 11 12 11 12 12 13 13 13 13 14 14 15 15 15 13 12 12 11 11 13 13 13 13 12 12 12 14 13 14 15 17 18 18 18 17 17 16 16 16 17 19
12 11 11 12 13 13 12 13 13 13 12 13 13 13 15 15 14 12 11 12 12 14 14 13 12 12 13 13 13 13 15 16 18 18 18 17 17 16 18 21 22 23 23
12 11 11 11 12 13 13 13 12 12 12 13 13 13 14 14 14 13 12 12 13 13 13 13 13 13 13 13 14 15 16 17 18 18 18 18 20 22 23 22 24 24 26
12 11 11 11 12 13 13 12 12 12 11 12 13 13 14 14 13 12 13 13 13 13 14 15 16 17 17 18 18 18 18 18 19 19 20 21 20 21 22 25 26 28 27
12 12 11 11 12 12 13 13 11 11 11 11 11 12 13 12 12 12 12 12 12 13 15 16 17 17 18 18 19 20 20 20 20 22 21 21 22 22 23 26 26 28 28
13 12 12 11 12 12 13 13 14 13 11 11 11 12 12 12 12 12 11 12 12 13 16 16 17 17 18 19 19 20 21 22 24 22 22 23 23 23 24 25 25 26 27
13 12 12 11 11 12 12 13 13 13 13 14 12 12 12 12 12 12 12 12 14 14 15 16 17 17 18 19 20 21 23 23 23 23 24 24 24 24 25 25 26 29 30
13 13 12 12 11 11 11 12 13 13 12 14 14 13 13 12 12 12 12 14 15 15 15 15 16 17 18 20 21 22 22 22 23 25 25 25 24 24 26 28 28 29 31
13 14 13 12 12 11 12 12 13 13 13 14 13 14 14 14 14 14 13 13 14 15 15 17 17 18 20 20 22 23 24 24 25 25 25 25 26 26 27 30 32 34 34
14 14 13 12 12 11 11 12 12 13 13 14 13 13 13 14 14 14 14 14 15 17 17 18 19 21 21 22 23 23 24 24 24 24 25 26 27 29 31 31 35 36 36
16 15 14 13 12 11 12 12 12 13 13 13 13 14 12 13 14 14 16 17 18 18 19 20 21 21 22 23 23 24 24 24 24 25 26 27 29 32 33 33 35 36 37
17 16 15 13 12 11 11 12 13 13 13 13 13 13 13 14 14 16 17 19 21 21 21 21 23 23 23 23 22 23 24 25 25 25 27 28 29 32 34 36 37 37 36
18 17 16 13 12 12 11 11 12 13 13 13 13 13 14 15 17 18 20 21 22 22 22 23 23 24 25 25 25 25 25 25 25 26 27 28 29 32 35 37 36 37 37
20 19 17 15 13 12 11 11 12 13 13 13 14 14 15 17 20 22 23 23 23 23 24 24 24 25 26 26 26 27 25 26 27 28 29 29 30 32 32 37 39 39 39
21 19 18 16 14 11 11 12 12 13 14 15 15 18 21 22 23 24 24 24 24 25 25 25 26 26 27 27 27 26 27 26 28 29 30 30 31 33 34 33 37 39 39

GFSGL_con_lsi_162.txt.gz
Lid_Strength_Index
5 2 2 1 1 1 1 1 1 1 2 2 2 3 2 2 2 2 3 2 3 3 2 3 2 2 2 2 2 2 3 2 4 9 10 10 11 11 11 10 10 9 9
7 6 5 1 1 1 1 1 1 2 1 2 1 2 2 2 2 2 2 3 2 3 2 3 2 3 2 2 2 3 3 3 3 7 11 12 12 11 12 11 11 10 9
8 8 7 6 3 2 2 1 1 1 2 1 1 2 1 1 2 2 2 2 2 2 2 3 3 3 3 3 3 3 3 6 5 9 12 12 12 12 13 12 11 11 10
8 8 8 7 6 5 2 2 2 2 2 2 2 2 2 2 2 2 2 2 2 2 3 3 3 3 3 4 4 4 7 7 8 10 13 13 13 14 13 13 13 13 12
9 9 8 8 7 6 5 3 2 2 2 2 2 2 2 2 2 3 3 3 3 3 4 3 4 5 8 6 5 6 7 10 11 13 14 14 14 15 13 13 14 13 13
10 10 9 8 8 7 6 5 4 3 2 3 3 2 2 3 6 8 5 3 4 4 6 7 8 12 11 10 9 9 7 9 12 12 14 14 14 14 13 13 14 13 13
11 11 10 9 9 8 8 7 7 5 4 3 3 3 4 4 9 9 9 3 5 5 6 9 12 12 12 11 11 11 11 9 8 10 12 12 13 13 13 15 14 14 16
12 12 11 11 11 10 9 8 7 6 5 5 4 4 4 5 10 10 10 4 6 7 8 9 10 12 12 12 13 14 14 13 12 12 11 12 12 13 13 14 15 15 16
12 13 12 13 13 11 10 9 8 7 8 8 9 8 8 8 10 10 10 9 11 11 10 10 10 12 14 13 14 14 15 15 12 12 12 12 12 13 15 16 20 19 19
11 13 13 12 13 12 11 9 8 9 9 10 11 11 11 10 11 11 10 12 14 14 14 13 13 13 13 12 13 14 15 15 15 15 15 15 15 14 15 16 17 20 21
12 12 12 11 11 11 11 11 10 10 10 11 12 12 12 12 12 11 10 11 12 13 14 13 14 13 12 11 11 13 14 15 15 17 18 18 18 18 18 18 17 18 22
12 12 11 11 11 11 11 11 11 10 11 11 12 13 14 15 13 11 10 10 11 13 14 14 14 12 11 12 13 13 14 15 17 18 18 19 19 19 19 19 18 18 19
13 12 12 11 10 10 11 11 11 11 11 12 12 12 14 14 13 11 11 11 12 13 13 13 12 12 12 13 13 13 15 16 18 18 19 19 19 19 20 22 22 22 22
14 13 12 12 11 10 10 10 11 10 11 12 12 12 13 14 13 13 13 12 13 13 13 13 13 13 13 14 14 15 16 16 17 18 18 19 20 22 23 23 24 25 26
16 13 13 12 11 11 10 10 10 10 10 11 12 12 13 13 13 12 12 14 13 13 14 14 14 15 15 15 16 16 16 17 17 19 20 21 21 21 24 25 26 30 29
17 14 14 13 12 11 10 10 9 9 9 10 10 10 13 11 11 12 12 12 12 13 14 15 15 15 16 17 17 17 17 17 18 19 20 20 21 22 24 26 27 30 29
18 16 13 13 12 12 11 11 11 10 9 10 10 10 11 11 12 12 11 12 12 12 14 15 15 16 16 16 17 17 18 18 20 20 21 21 22 23 24 25 26 27 30
19 17 14 13 13 12 11 10 10 11 11 11 11 10 10 11 12 11 12 12 14 13 14 15 15 15 16 17 17 18 19 21 21 22 22 23 23 24 25 26 27 30 31
21 17 14 14 14 13 12 11 10 10 11 11 13 12 12 11 11 11 12 13 14 14 15 15 15 15 17 17 18 19 20 21 22 23 23 24 24 25 26 27 27 28 31
20 20 15 16 16 15 12 11 11 11 11 12 13 12 12 13 13 13 13 13 14 14 14 15 15 15 16 18 19 20 21 23 24 24 24 24 25 25 27 27 28 29 30
22 19 19 17 16 15 13 12 10 11 11 11 12 12 12 12 13 12 13 13 13 14 14 14 15 16 17 19 20 21 22 23 24 24 25 25 26 27 27 27 28 29 31
23 22 19 19 18 17 15 13 11 10 11 11 12 12 11 12 13 13 13 13 13 13 13 14 16 17 18 19 20 21 22 23 24 25 25 26 26 27 28 28 29 31 33
21 22 22 21 20 18 17 14 12 10 9 11 11 12 13 13 13 13 12 13 13 14 15 16 18 19 19 20 20 20 22 23 23 24 26 26 27 27 28 29 30 31 34
22 23 23 23 22 21 19 17 14 11 9 9 11 11 12 12 13 13 13 13 15 17 17 18 18 20 21 21 21 21 21 23 23 24 25 26 27 28 29 29 30 33 32
24 24 23 23 22 22 20 18 15 12 10 9 10 11 12 12 12 13 15 17 18 19 19 20 20 21 22 22 23 24 23 24 25 26 26 26 27 28 29 30 33 33 34
25 24 23 22 21 21 20 19 16 13 11 9 9 10 12 13 17 19 20 21 21 22 22 22 22 23 24 25 24 24 25 25 27 26 26 27 28 29 30 31 32 32 34

GFSGL_con_lsi_165.txt.gz
Lid_Strength_Index
7 7 6 4 2 1 1 2 2 1 2 2 2 3 3 2 3 3 4 3 3 3 3 3 3 1 2 3 3 3 3 2 4 9 10 11 11 11 10 10 10 10 10
8 8 7 6 5 3 2 1 1 1 1 2 2 3 3 3 3 3 3 3 3 3 3 3 3 3 3 2 3 3 3 2 3 7 12 12 12 11 11 11 11 10 11
9 9 8 8 7 6 5 4 1 1 1 1 2 2 2 2 2 2 2 3 3 3 3 3 3 3 3 3 3 3 3 4 3 9 12 13 13 13 13 13 12 12 12
10 10 9 9 9 8 7 6 5 3 1 1 1 1 2 2 2 2 2 3 2 2 2 2 2 2 3 3 3 3 4 4 5 7 13 13 14 13 13 14 14 15 14
10 10 11 10 9 9 9 8 6 5 4 2 1 1 2 2 2 2 2 2 2 2 2 2 2 4 7 5 4 4 5 6 8 13 14 14 15 14 13 13 14 15 17
10 11 10 11 10 11 11 10 9 8 6 5 3 2 2 2 5 7 5 2 3 3 3 3 3 9 9 9 9 7 6 7 10 12 14 12 14 13 13 13 14 15 15
11 10 11 11 11 12 12 11 11 10 8 7 6 4 2 2 6 8 9 3 2 2 3 3 5 6 9 6 9 9 10 9 8 8 11 11 13 12 12 14 15 15 15
11 11 12 13 13 12 12 12 12 10 10 9 7 5 4 2 6 7 9 5 3 3 4 4 6 9 10 11 11 13 13 11 10 10 8 10 11 11 11 13 14 17 18
13 13 13 13 13 13 12 11 12 12 11 10 10 8 7 5 6 8 8 5 6 7 7 7 8 10 12 11 13 15 15 15 12 12 11 11 11 12 14 15 17 18 19
15 14 13 12 12 11 11 11 11 11 11 11 11 9 9 8 7 8 8 7 9 11 13 12 13 12 13 12 13 14 16 16 16 14 14 12 13 13 13 13 16 16 21
15 13 13 12 12 11 11 10 10 11 11 11 10 10 10 9 8 8 8 8 8 12 13 14 13 12 12 11 11 13 13 15 14 16 16 17 17 18 18 18 17 17 22
15 15 15 12 12 11 11 10 10 10 10 10 11 10 9 10 11 9 9 8 8 11 13 13 13 12 11 11 12 12 13 15 16 17 17 18 19 19 19 19 20 20 20
18 18 16 13 12 11 11 11 10 10 10 10 10 10 10 9 11 10 9 9 10 11 12 12 12 12 11 12 12 13 15 16 16 17 18 19 19 19 21 22 22 21 21
20 19 17 14 13 12 12 11 10 10 10 10 10 10 10 10 10 12 12 11 12 13 13 13 12 12 12 13 14 15 15 15 15 17 18 19 20 20 22 22 22 22 23
20 19 18 16 14 13 12 11 11 10 9 10 10 10 10 10 9 10 11 12 13 13 14 15 14 14 15 15 15 16 16 16 16 17 19 20 20 21 22 22 22 26 25
22 21 20 18 16 14 13 13 10 9 9 8 8 9 9 9 9 9 10 10 11 11 14 14 14 14 14 15 17 17 17 17 17 18 18 19 20 21 23 24 24 26 25
23 22 22 20 17 14 14 14 15 12 9 8 8 8 8 9 9 9 10 10 10 11 13 13 14 14 14 15 16 17 17 17 17 18 19 19 20 21 23 23 25 26 28
25 24 23 21 19 17 15 16 16 15 14 11 8 8 8 8 8 9 9 10 11 11 12 13 13 14 14 15 16 16 17 18 18 18 19 20 21 22 23 24 25 27 27
25 24 23 23 22 18 19 18 16 15 13 12 10 8 9 8 8 8 9 11 13 12 12 12 13 13 14 14 15 15 17 18 19 19 20 21 21 23 24 25 26 27 29
25 24 23 24 23 22 19 18 18 16 15 13 12 10 8 9 10 11 11 11 12 12 12 12 13 13 14 14 15 17 18 19 20 20 21 21 22 23 24 26 27 28 29
26 25 25 24 23 21 21 21 20 19 17 15 13 10 8 8 9 11 11 12 12 12 12 13 13 14 14 15 16 17 18 19 20 21 22 23 23 24 25 26 27 28 29
25 25 24 24 24 24 23 22 21 20 19 17 14 11 8 8 8 10 11 11 11 11 11 12 13 13 14 16 17 17 19 20 21 21 22 23 24 25 26 27 28 29 29
25 26 25 25 24 24 24 23 23 22 21 19 16 13 10 8 8 8 10 11 11 12 12 12 12 14 15 16 16 17 19 20 21 21 23 24 25 26 27 28 29 29 29
25 25 26 25 25 24 24 24 23 22 21 20 17 15 12 9 8 8 8 10 11 12 12 13 13 15 16 17 18 18 19 20 21 21 23 25 26 27 27 28 29 29 29
24 24 25 25 25 25 24 24 24 23 22 20 18 16 13 10 8 8 8 9 11 12 14 15 15 17 18 18 19 19 20 21 22 22 23 25 26 27 27 28 29 29 30
24 24 25 25 25 25 25 25 24 24 22 20 19 16 13 11 8 7 8 10 13 16 17 18 18 18 19 20 21 21 22 22 23 23 24 25 27 27 28 29 29 29 30

GFSGL_con_lsi_168.txt.gz
Lid_Strength_Index
9 8 8 7 7 5 4 2 1 1 1 2 2 3 3 3 3 3 3 3 4 3 3 3 3 3 3 3 3 3 4 3 4 4 10 12 12 11 11 10 10 9 7
9 9 9 8 8 8 7 6 5 3 1 1 1 2 2 2 2 3 4 4 4 4 4 3 3 3 3 3 3 3 3 3 4 5 12 13 13 11 11 11 12 10 10
10 11 10 10 9 9 9 8 7 6 5 3 1 1 2 2 2 2 2 3 3 3 3 3 3 3 3 3 3 3 3 3 3 4 12 13 15 13 13 13 13 12 11
10 11 11 11 10 10 10 9 9 8 7 5 4 3 1 1 1 2 2 2 2 3 3 3 3 3 3 3 3 3 3 4 4 4 12 13 15 15 14 14 15 15 13
12 11 11 11 11 11 11 10 10 10 8 7 6 5 4 2 1 1 2 2 2 2 2 2 2 4 7 4 3 3 3 4 5 5 14 15 17 16 14 14 14 14 15
13 12 12 13 12 12 11 11 11 10 10 9 8 7 7 5 5 6 5 2 2 2 2 2 2 9 8 9 8 7 4 4 5 6 11 12 14 14 14 14 15 15 14
13 13 13 13 13 12 11 10 10 10 10 10 9 9 8 8 8 7 8 3 2 2 2 2 3 3 7 3 6 8 8 7 5 7 11 10 13 13 13 14 14 13 14
15 15 14 13 13 12 12 11 10 10 10 10 10 10 9 9 9 9 9 6 4 2 2 2 3 3 4 5 5 5 8 8 7 7 6 8 9 11 11 12 12 15 16
17 17 15 14 13 12 13 12 11 11 10 10 10 10 10 10 10 9 8 7 7 5 3 3 2 3 7 9 10 13 14 15 13 12 10 10 11 10 11 14 15 14 18
18 17 15 15 14 13 12 12 11 11 11 10 10 10 10 9 9 9 9 8 8 7 6 8 11 8 10 10 9 12 14 15 15 15 14 12 12 12 12 11 13 13 19
18 17 17 16 16 13 12 11 11 11 11 10 10 10 10 10 8 8 8 9 9 9 8 7 9 10 10 10 9 12 12 15 14 15 15 16 15 16 16 14 14 14 18
18 19 18 17 16 13 12 12 12 11 11 11 10 10 9 9 9 8 8 8 8 10 10 8 9 10 11 10 11 10 12 13 15 15 16 17 17 19 19 19 19 19 19
21 21 19 18 16 14 14 13 13 12 11 11 11 11 10 9 9 8 8 8 8 10 9 9 10 10 11 10 11 12 14 14 15 15 16 17 18 20 21 21 21 21 22
23 21 19 18 18 17 15 14 13 12 12 12 12 11 11 10 9 9 9 9 9 9 10 10 10 10 11 12 14 13 14 13 14 15 16 19 20 21 21 20 21 22 22
23 22 21 20 20 19 18 15 13 12 12 13 12 11 12 11 9 8 8 9 9 9 11 13 12 13 14 14 14 15 15 15 15 16 19 19 20 21 21 20 21 23 24
25 24 23 23 23 21 19 19 15 13 12 11 11 11 10 9 8 8 8 8 8 8 11 12 12 13 13 14 15 16 15 15 16 17 18 18 20 20 21 21 21 23 24
26 25 25 24 23 22 22 22 20 17 15 14 12 11 9 9 8 8 8 8 8 8 10 10 12 12 12 13 14 14 16 15 16 17 18 19 19 20 22 22 23 23 25
28 27 26 25 24 24 24 22 22 23 21 19 15 14 12 10 8 8 7 7 9 9 10 10 10 11 12 13 14 15 15 17 17 17 18 19 20 21 22 22 22 24 25
28 27 25 25 25 25 24 24 23 21 21 22 20 17 15 12 10 8 7 8 9 9 9 10 10 10 12 13 13 14 15 16 16 17 18 19 20 20 21 22 23 24 26
27 26 26 26 26 26 25 24 23 24 24 23 22 21 19 17 17 14 10 9 9 8 8 9 9 10 11 12 13 13 15 16 16 17 19 19 20 20 22 23 24 26 26
28 27 27 26 27 26 26 26 26 25 24 24 24 22 18 18 18 15 12 10 8 8 8 8 8 9 10 11 12 13 15 16 16 17 19 20 20 21 22 23 24 25 27
28 27 27 27 27 27 27 26 26 26 26 25 24 23 19 21 20 18 15 11 8 7 7 7 8 9 11 11 12 14 15 16 16 17 19 20 21 22 23 25 25 26 27
26 27 27 27 27 27 27 26 26 26 26 25 24 24 22 21 20 18 16 12 9 7 7 7 8 8 10 11 12 13 14 16 16 18 20 20 22 23 24 25 26 27 28
27 27 27 27 27 27 26 26 26 25 25 24 23 22 21 21 20 19 17 14 10 7 7 7 8 8 8 11 12 13 14 15 17 18 19 21 23 24 24 25 26 27 28
26 26 26 26 27 27 26 26 25 25 24 24 23 23 22 21 20 20 18 15 11 8 7 7 8 8 8 11 14 15 16 17 18 19 20 21 23 24 24 25 26 27 28
25 25 26 26 27 27 27 27 26 26 26 25 24 23 23 22 21 19 18 16 13 10 7 7 8 9 10 12 16 17 18 18 19 19 20 22 23 24 25 26 27 28 29

GFSGL_con_lsi_171.txt.gz
Lid_Strength_Index
10 9 9 8 8 7 7 7 7 5 4 2 0 1 1 1 1 2 1 2 2 2 2 3 3 3 3 3 3 3 4 4 5 4 3 6 8 7 9 8 8 8 8
9 9 9 9 9 9 8 8 7 7 6 5 4 2 1 1 1 1 2 2 2 3 3 4 4 3 3 3 3 3 4 3 4 5 4 11 8 9 8 9 10 9 8
10 9 9 9 9 9 9 9 9 9 8 7 6 5 4 2 1 1 1 1 1 2 2 3 3 3 3 3 3 3 3 3 3 4 4 10 10 10 11 11 11 12 11
10 10 11 11 11 10 10 10 10 9 9 8 8 7 6 5 4 2 1 1 1 1 1 1 1 2 2 3 3 3 3 3 3 4 4 11 12 14 11 13 15 14 14
12 12 12 12 12 12 12 11 10 10 10 9 9 8 7 7 5 5 5 4 2 2 1 1 1 3 6 4 2 3 3 3 3 4 5 11 15 15 13 13 14 15 15
13 14 13 14 13 12 12 12 11 10 10 10 9 9 8 8 8 8 8 7 6 5 2 2 1 7 7 9 8 7 4 3 4 4 4 9 10 11 12 13 15 16 17
15 15 15 14 15 13 12 12 11 11 10 9 9 9 9 8 8 8 9 8 7 7 5 3 2 2 7 3 5 8 8 7 6 3 4 5 7 10 12 14 15 14 14
16 16 16 15 16 14 13 12 12 11 11 10 10 9 9 9 8 8 9 8 8 7 7 6 5 4 3 4 3 3 4 5 5 6 5 5 6 10 11 12 13 14 16
18 18 17 17 17 16 14 13 12 12 12 11 11 10 10 9 8 8 8 8 8 8 8 7 5 5 5 6 4 6 7 7 10 10 9 8 8 10 11 13 15 15 18
19 19 18 17 17 17 15 13 13 12 12 11 11 10 10 9 8 8 8 8 9 9 9 9 10 9 8 7 6 6 8 8 12 14 12 12 10 11 12 11 13 14 19
20 19 19 18 18 17 15 14 13 13 12 12 11 10 10 9 9 8 7 8 9 9 10 10 9 9 8 8 7 8 8 8 12 15 14 14 14 13 13 14 12 12 14
21 21 20 19 18 17 17 16 14 14 13 13 12 12 10 10 9 8 8 7 7 9 10 9 9 8 9 8 8 8 8 11 14 14 14 15 14 15 17 17 18 18 17
23 23 21 20 19 19 19 18 17 14 14 13 13 13 12 11 11 9 9 8 8 9 9 9 9 9 8 8 8 9 11 13 13 15 14 15 15 17 19 21 21 21 22
24 23 22 21 21 20 19 18 18 16 15 15 15 14 13 13 12 10 9 9 9 9 9 8 8 9 9 9 11 10 12 12 13 13 14 17 19 18 19 18 20 20 21
24 24 23 23 23 22 21 20 18 18 17 16 15 14 15 16 14 10 10 10 10 9 9 9 9 9 10 11 11 12 12 13 13 13 17 17 17 17 19 18 19 20 22
26 25 25 24 24 23 22 22 19 18 16 15 15 15 15 13 12 12 11 10 9 9 9 9 9 10 10 10 11 11 12 13 13 15 15 15 17 17 19 19 19 20 21
27 27 26 26 25 24 24 24 25 22 19 18 16 15 14 15 14 13 12 12 10 10 10 9 9 9 9 9 10 11 11 12 13 15 16 17 18 19 20 20 21 21 22
29 28 27 26 25 25 25 25 25 26 26 24 19 18 17 16 15 15 14 14 15 11 10 10 10 9 9 9 9 10 10 11 13 14 15 16 18 19 19 20 20 22 23
29 28 26 26 26 26 26 26 26 25 25 25 24 22 20 18 17 17 15 17 16 15 12 10 10 9 9 9 9 9 10 11 12 13 15 16 17 18 19 20 20 22 24
28 27 27 28 27 27 27 27 27 27 27 27 26 25 24 24 23 21 20 19 18 16 14 11 10 9 9 9 8 9 10 11 11 12 14 16 17 18 19 20 21 23 23
29 29 28 28 28 28 28 28 28 27 28 27 27 25 21 22 23 23 23 22 21 19 17 15 11 9 8 8 8 8 9 10 11 11 13 15 17 18 18 20 22 23 24
29 28 27 28 28 28 28 28 28 28 28 28 27 26 22 24 25 24 24 23 21 20 18 16 14 11 9 8 8 8 9 9 11 11 13 15 17 18 20 21 22 24 25
27 28 28 28 28 28 27 27 27 27 27 27 27 27 26 26 25 25 24 23 22 21 19 18 16 14 9 8 8 8 8 9 10 11 13 16 18 20 21 22 23 25 25
28 29 29 28 28 28 28 28 28 28 28 28 28 27 27 26 25 25 23 22 21 19 18 17 15 13 11 6 6 7 7 7 8 11 12 16 18 20 21 22 23 24 25
28 28 28 28 28 28 28 28 28 27 27 27 27 27 27 25 25 24 23 22 21 20 19 18 16 14 12 9 6 6 7 8 11 12 13 16 19 21 22 22 23 24 25
26 26 26 27 27 27 27 27 27 27 27 27 27 27 26 26 25 24 24 23 22 21 19 17 16 15 13 13 7 6 8 10 12 13 14 17 20 21 21 23 24 25 26

GFSGL_con_lsi_174.txt.gz
Lid_Strength_Index
8 7 7 7 7 7 7 7 6 6 5 5 4 3 2 1 0 1 1 1 1 1 1 1 1 1 2 3 3 3 3 3 5 4 3 1 2 4 5 6 5 4 5
8 8 8 8 7 7 7 7 6 6 6 6 5 5 4 3 2 1 1 1 2 2 2 1 2 1 2 2 2 3 3 4 4 5 4 3 4 4 4 6 6 6 6
8 8 8 8 8 8 8 8 7 7 6 6 6 6 6 5 4 4 3 2 1 1 1 2 2 2 2 2 2 2 3 3 3 4 4 3 3 6 6 6 7 7 8
9 9 9 9 9 9 9 8 8 8 7 7 7 7 7 6 5 4 5 5 4 3 2 1 1 2 2 2 2 2 2 2 3 3 4 4 5 11 9 8 12 14 10
10 10 11 11 10 10 10 9 9 8 9 8 8 8 7 7 7 8 8 8 7 6 5 4 3 4 7 4 2 2 2 3 3 4 4 4 10 14 12 9 9 10 15
12 12 12 12 12 12 11 11 11 10 10 9 9 9 9 9 9 9 9 9 8 8 7 6 5 6 4 6 7 7 4 3 3 4 4 5 5 10 7 9 11 15 15
14 14 14 14 14 14 13 12 12 12 11 11 10 9 9 9 8 8 9 8 8 7 7 6 6 5 7 4 4 6 6 7 6 3 4 3 4 7 8 10 11 12 11
15 15 15 15 15 14 14 13 12 11 11 11 10 10 9 9 9 8 8 8 7 7 7 7 6 6 5 6 5 6 5 4 3 4 4 4 3 4 5 8 10 13 15
17 17 16 16 16 15 15 14 13 12 12 12 11 10 10 9 9 8 8 8 8 8 7 7 7 8 8 7 8 9 9 8 5 6 6 7 8 8 8 12 13 14 16
18 18 17 17 17 16 16 15 14 13 13 12 12 10 10 9 9 8 8 9 9 9 8 8 9 9 8 8 8 9 10 9 9 8 7 8 8 8 10 9 11 13 14
20 19 19 18 18 17 16 16 16 15 14 13 12 10 10 10 9 9 9 9 9 9 9 9 8 8 8 8 8 8 9 8 9 10 9 10 12 12 10 11 11 11 13
21 22 21 19 19 18 18 17 17 16 15 13 12 12 11 10 10 10 10 9 9 10 10 9 9 8 8 7 8 8 7 7 9 10 12 12 13 14 15 15 13 15 14
23 23 22 21 20 20 19 19 18 17 15 15 15 14 13 11 11 11 11 10 10 10 10 10 9 9 8 8 8 8 9 9 9 11 11 11 13 15 17 19 18 18 19
24 24 22 22 22 20 20 19 19 17 17 18 17 16 14 13 12 12 12 11 11 11 11 10 10 9 8 7 9 8 8 8 10 10 11 13 15 17 17 18 17 16 17
25 24 24 23 22 22 21 20 19 18 18 18 18 15 17 17 14 13 13 13 13 12 12 12 11 10 9 9 8 8 8 9 10 10 12 14 15 15 16 16 16 16 19
26 25 24 24 24 23 22 21 19 19 18 18 17 16 16 15 14 14 14 13 13 13 14 14 13 11 10 10 9 9 8 9 9 9 10 12 13 14 15 17 17 16 17
27 27 26 25 24 24 23 23 24 22 20 19 18 17 17 16 16 15 15 15 14 14 15 14 12 11 10 10 10 10 10 9 9 10 10 10 11 12 14 16 17 18 19
28 27 26 25 24 24 24 24 24 25 25 23 20 19 18 17 17 17 17 16 18 16 15 15 14 12 11 10 10 10 10 9 9 10 10 11 11 12 13 14 16 18 20
27 26 25 25 25 25 25 25 24 24 25 25 24 22 21 19 19 19 18 19 19 19 18 17 16 15 13 11 10 10 10 9 9 10 11 11 12 12 13 13 15 16 20
27 27 27 27 26 26 25 25 25 25 25 25 25 25 23 23 24 22 21 20 21 21 20 19 18 17 16 15 12 10 10 9 9 9 10 10 11 12 13 14 14 19 20
27 27 27 27 26 26 26 26 26 26 26 26 26 24 22 23 24 23 23 22 22 22 21 20 20 19 18 17 15 12 10 10 9 9 10 10 11 13 13 14 16 17 19
27 26 26 27 26 26 26 26 26 26 26 26 25 25 22 24 25 25 24 24 23 22 21 21 21 20 19 18 17 16 15 10 9 9 10 10 12 13 13 15 17 18 21
27 27 27 27 26 27 26 26 26 26 26 26 26 26 26 26 26 25 25 24 24 23 22 22 22 21 20 19 18 16 16 14 10 8 9 10 12 13 14 16 17 19 21
26 27 27 26 26 25 25 25 25 26 26 26 26 26 26 26 26 26 26 25 25 24 23 23 23 22 21 20 19 17 16 13 12 7 7 9 12 13 14 16 17 18 20
26 26 25 25 25 25 25 25 25 25 25 25 25 25 25 25 26 26 25 25 25 25 24 24 23 22 21 20 19 16 14 13 12 12 6 7 10 11 14 15 17 18 20
24 24 24 23 24 24 24 24 24 24 24 24 24 24 24 25 25 25 25 25 25 24 24 22 21 21 20 19 18 17 16 14 12 11 7 8 11 12 14 16 17 19 21